Regional Weather Roundup
Issued by NWS

Home | Current Version | Previous Version | Text Only | Print | Product List | Glossary Off
Versions: 1 2 3 4 5 6 7 8 9 10 11 12 13 14 15 16 17 18 19 20 21 22 23 24 25 26 27 28 29 30 31 32 33 34 35 36 37 38 39 40 41 42 43 44 45 46 47 48 49 50

000
ASUS43 KMKX 240411
RWRWI

WISCONSIN REGIONAL WEATHER ROUNDUP
NATIONAL WEATHER SERVICE MILWAUKEE/SULLIVAN WI
1000 PM CST SUN NOV 23 2014

NOTE: "FAIR" INDICATES FEW OR NO CLOUDS BELOW 12,000 FEET WITH NO
SIGNIFICANT WEATHER AND/OR OBSTRUCTIONS TO VISIBILITY.

WIZ001-002-006>008-014>016-023>028-240500-
NORTHWEST WISCONSIN

CITY           SKY/WX    TMP DP  RH WIND       PRES   REMARKS
SUPERIOR ARPT  DRIZZLE   35  35  99 CALM      29.33F
ASHLAND        CLOUDY    38  38 100 NW3       29.30F FOG
HAYWARD        LGT RAIN  38  36  92 N6        29.27F FOG     WCI  33
SIREN          RAIN      37  36  98 NW8       29.32F WCI  30
CUMBERLAND     RAIN      34  34 100 NW13      29.28S WCI  25
RICE LAKE      DRIZZLE   37  37  99 W3        29.29S
CHETEK         RAIN      37  37 100 W6        29.27S WCI  32
LADYSMITH      LGT RAIN  41  40  97 W7        29.25F VSB 3/4
EAU CLAIRE     LGT RAIN  40  38  93 NW8       29.25S FOG     WCI  34
MENOMONIE      CLOUDY    38  38  98 W12       29.28S FOG     WCI  31
NEW RICHMOND   DRIZZLE   36  36 100 NW10      29.31F WCI  28
OSCEOLA        LGT RAIN  37  37 100 NW7       29.35F WCI  31
$$

WIZ003>005-009-010-017-018-240500-
NORTH CENTRAL WISCONSIN

CITY           SKY/WX    TMP DP  RH WIND       PRES   REMARKS
MANITOWISH WTR FOG       35  35 100 CALM      29.24F VSB 1/4
ARBOR VITAE    FOG       42  41  97 CALM      29.24F VSB 1/2
WOODRUFF       FOG       42  41  97 CALM      29.24F VSB 1/2
RHINELANDER    FOG       38  38 100 E3        29.24F VSB 1/4
EAGLE RIVER    LGT RAIN  40  40 100 CALM      29.25F VSB 1/4
LAND O LAKES   SNOW      41  41 100 CALM      29.25F VSB 1/2
PHILLIPS       FOG       39  39 100 CALM      29.23F VSB 1/2
TOMAHAWK       FOG       39  39  97 CALM      29.24F VSB 1/4
MEDFORD        FOG       42  42 100 SE3       29.22F VSB 1/2
MERRILL        DRZL/FOG  40  40 100 CALM      29.23F VSB 1/4
$$

WIZ029-030-035-036-043>047-240500-
CENTRAL WISCONSIN

CITY           SKY/WX    TMP DP  RH WIND       PRES   REMARKS
WAUSAU         LGT RAIN  42  42 100 E3        29.22F VSB 1/4
MOSINEE        RAIN      41  41 100 E3        29.24F VSB 1/4
MARSHFIELD     LGT RAIN  44  43  96 E3        29.21F VSB 1/4
STEVENS POINT  LGT RAIN  41  41 100 NE3       29.23F VSB 1/4
WAUPACA        DRZL/FOG  46  45  97 N3        29.23F VSB 1/4
WAUTOMA        LGT RAIN  46  46 100 N6        29.22F VSB 1/4
WISC RAPIDS    LGT RAIN  44  43  96 E5        29.23F
CAMP DOUGLAS   FOG       45  45 100 CALM      29.21F VSB 1/2
$$

WIZ011>013-019>022-031-037>040-048>050-240500-
NORTHEAST WISCONSIN

CITY           SKY/WX    TMP DP  RH WIND       PRES   REMARKS
ANTIGO         DRZL/FOG  38  38 100 E5        29.23F VSB 1/2 WCI  35
SHAWANO        DRZL/FOG  43  42  96 CALM      29.25F VSB 1/4
OCONTO         CLOUDY    42  42 100 NE3       29.24F VSB 1/2
STURGEON BAY   CLOUDY    46  45  93 SE9       29.25F
GREEN BAY      LGT RAIN  45  44  97 CALM      29.23F FOG
MANITOWOC      LGT RAIN  45  44  97 CALM      29.22F VSB 3/4
APPLETON       LGT RAIN  43  43 100 SE5       29.23F VSB 3/4
CLINTONVILLE   LGT RAIN  43  43 100 NE3       29.24F VSB 1
OSHKOSH        LGT RAIN  45  44  97 SE5       29.21F FOG
$$

WIZ032>034-041-042-053>061-240500-
SOUTHWEST WISCONSIN

CITY           SKY/WX    TMP DP  RH WIND       PRES   REMARKS
LA CROSSE      LGT RAIN  43  42  97 NW14      29.22F FOG
SPARTA         RAIN      45  45 100 CALM      29.22F VSB 1/2
VIROQUA        CLOUDY    44  44 100 CALM      29.20F VSB 1/4
BOSCOBEL       FOG       47  46  97 CALM      29.20F VSB 1/2
PRAIRIE DU CHI DRZL/FOG  44  43  96 CALM      29.21F VSB 1/2
PLATTEVILLE    CLOUDY    46  45  97 CALM      29.19F VSB 1/2
$$

WIZ056-057-062-063-064-067-068-240500-
SOUTH CENTRAL WISCONSIN

CITY           SKY/WX    TMP DP  RH WIND       PRES   REMARKS
REEDSBURG      FOG       45  45 100 CALM      29.19F VSB 1/2
BARABOO/DELLS  DRZL/FOG  46  44  95 CALM      29.19F VSB 1/2
LONE ROCK      FOG       50  46  86 E3        29.19F VSB 1/2
MINERAL POINT  FOG       46  46 100 CALM      29.18F VSB 1/4
MADISON        LGT RAIN  47  46  97 CALM      29.19F FOG
MIDDLETON      CLOUDY    47  47 100 CALM      29.19F VSB 1/4
WATERTOWN      LGT RAIN  46  46 100 E3        29.18F
MONROE         DRZL/FOG  46  46 100 CALM      29.17F VSB 1/4
JANESVILLE     LGT RAIN  46  45  93 CALM      29.18F
$$

WIZ051-052-058>065-066-070>072-240500-
SOUTHEAST WISCONSIN

CITY           SKY/WX    TMP DP  RH WIND       PRES   REMARKS
MILWAUKEE      LGT RAIN  46  45  96 SE3       29.18F VSB 1
WAUKESHA       LGT RAIN  45  45 100 CALM      29.18F
MILWAUKEE/TIMM RAIN      45  43  93 CALM      29.19F
RACINE         RAIN      46  45  96 CALM      29.19F VSB 1
BURLINGTON     LGT RAIN  44  44 100 CALM      29.17F VSB 3/4
KENOSHA        LGT RAIN  47  46  97 E3        29.17F FOG
FOND DU LAC    LGT RAIN  46  44  93 SE6       29.20F FOG
SHEBOYGAN      LGT RAIN  44  42  93 CALM      29.21F VSB 1/2
WEST BEND      LGT RAIN  43  43 100 CALM      29.19F
JUNEAU         LGT RAIN  45  45  99 E5        29.20F
$$

LSZ147-162-240500-
LAKE SUPERIOR

STATION/POSITION TIME  TEMP    WIND        PRES    WAVE
                       AIR SEA DIR/SP/G            HT/PER
                 (UTC) (F)     (DEG/KT/KT) (MB)    (FT/S)
DEVILS ISLAND    0400   39     330/ 12/ 13  992.5F
PORT WING        0300   36     300/  7/  9  993.6F
SAXON HARBOR     0300   39        CALM      992.6
$$

LMZ867-665-643>646-240500-
LAKE MICHIGAN

STATION/POSITION TIME  TEMP    WIND        PRES    WAVE
                       AIR SEA DIR/SP/G            HT/PER
                 (UTC) (F)     (DEG/KT/KT) (MB)    (FT/S)
CHAMBERS ISLAND  0300   45     140/  3/  7  993.2F
N MID LAKE BUOY  0350   44 42  110/  8/ 10  992.0F   3/ 6
NORTHPORT PIER   0400   42     130/  6/ 14  991.2F
SISTER BAY       0343          150/  7/ 11   N/A
KEWAUNEE LAKESHO 0300   41     180/  2/  3  991.4F
SHEBOYGAN LAKESH 0400   46 40  110/ 11/ 11  989.1F
PORT WASHINGTON  0320   45      CALM  /  5  991.2F
ATWATER BUOY     0300   46     130/  4/  6  993.5F
MILWAUKEE LAKESH 0300   44     250/  2/  3   N/A
S MID LAKE BUOY  0350   46 42  110/ 10/ 12  988.4F   1/ 3
KENOSHA   LAKESH 0400   45        CALM      988.5F
$$

TC  - TEMPERATURE IN CELSIUS
VSB - VISIBILITY IN STATUTE MILES
WCI - WIND CHILL INDEX
HX  - HEAT INDEX



USA.gov is the U.S. government's official web portal to all federal, state and local government web resources and services.